{"data":{"norad_id":58107,"intl_designator":"2023-161L","name":"STARLINK-30421","alt_names":[],"object_type":"PAYLOAD","status":"ACTIVE","operator":null,"country":"US","launch_date":"2023-10-21","launch_site_code":"AFWTR","launch_vehicle":null,"mission":null,"orbit_class":"UNKNOWN","rcs_meters":null,"size_class":null,"mass_kg":null,"dimensions":null,"purposes":["comms"],"wikipedia_slug":null,"has_3d_model":false,"image_url":null,"decayed_at":null,"tle_current":{"epoch":"2026-09-20T20:38:14.929728Z","epoch_age_seconds":109413,"freshness":"FRESH","line1":"1 58107U 23161L   26263.85989502  .00001312  00000+0  49958-4 0  9994","line2":"2 58107  53.1601 321.7198 0001064  72.5965 287.5154 15.34388209164540","mean_motion":15.34388209,"eccentricity":0.0001064,"inclination_deg":53.1601,"raan_deg":321.7198,"arg_perigee_deg":72.5965,"mean_anomaly_deg":287.5154,"bstar":4.9958e-5,"rev_number":16454,"period_min":93.848479254053,"perigee_km":462.01041663796,"apogee_km":463.46615489877,"semimajor_km":6840.8752857684,"source":"CELESTRAK","updated_at":"2026-09-21T09:00:33.788123Z"}}}